Flag for Germany Weather past 2 weeks in Waren (Müritz), Mecklenburg-Western Pomerania, Germany

Now
48 °F

Passing clouds.


Feels Like: 45 °F
Forecast: 40 / 52 °F
Wind: 7 mph from Southeast

Location: Laage

Current Time: Oct 24, 2014 at 9:10:43 PM

Latest Report: Oct 24, 2014 at 8:20 PM


Visibility: 4 mi

Pressure: 30.15 "Hg

Humidity: 87%

Dew point: 45 °F

Location of Waren (Müritz)Location

Historic Weather in Waren (Müritz) — Graph

°F

Waren (Müritz) temperature yesterday

Maximum temperature yesterday: 54 °F (at 5:20 AM)
Minimum temperature yesterday: 48 °F (at 10:20 PM)
Average temperature yesterday: 51 °F

Past Weeks' High & Low Weather Summary

 TemperatureHumidityPressure
High70 °F (Oct 19, 2:20 PM)100% (Oct 11, 12:20 AM)30.21 "Hg (Oct 11, 12:20 AM)
Low46 °F (Oct 13, 1:20 AM)63% (Oct 20, 3:20 PM)29.39 "Hg (Oct 21, 9:20 PM)
Average54 °F92%29.86 "Hg
* Reported Oct 9 7:20 PM — Oct 24 7:20 PM, Waren (Müritz), Weather by CustomWeather, © 2014

Note: Actual official high and low records may vary slightly from our data, if they occured in-between our weather recording intervals... More about our weather records

Advertising

Waren (Müritz) weather history for previous 24 hours

 ConditionsComfort  
Time TempWeatherWind HumidityBarometerVisibility
7:20 PM
Oct 24
48 °FPartly cloudy.10 mph87%30.15 "Hg4 mi
6:20 PM48 °FBroken clouds.8 mph94%30.15 "Hg4 mi
5:20 PM52 °FBroken clouds.7 mph82%30.15 "HgN/A
4:20 PM52 °FBroken clouds.8 mph88%30.15 "Hg6 mi
3:20 PM52 °FMore clouds than sun.8 mph82%30.15 "Hg5 mi
2:20 PM52 °FMore clouds than sun.8 mph82%30.18 "Hg5 mi
1:20 PM52 °FPartly sunny.8 mph88%30.18 "Hg6 mi
12:20 PM52 °FPartly sunny.9 mph88%30.21 "Hg5 mi
11:20 AM52 °FBroken clouds.8 mph88%30.21 "Hg5 mi
10:20 AM50 °FPartly sunny.6 mph88%30.21 "Hg4 mi
9:20 AM50 °FPartly sunny.6 mph88%30.21 "Hg4 mi
8:20 AM50 °FPassing clouds.7 mph88%30.18 "Hg4 mi
7:20 AM48 °FPassing clouds.6 mph94%30.18 "Hg6 mi
6:20 AM48 °FPassing clouds.5 mph94%30.18 "Hg6 mi
5:20 AM48 °FPassing clouds.5 mph94%30.18 "Hg4 mi
4:50 AM48 °FPartly cloudy.5 mph94%30.18 "Hg4 mi
4:20 AM48 °FFog.6 mph94%30.18 "Hg3 mi
3:48 AM48 °FFog.6 mph94%30.18 "Hg3 mi
3:20 AM48 °FFog.5 mph94%30.18 "Hg3 mi
2:20 AM48 °FFog.5 mph100%30.18 "Hg3 mi
1:20 AM50 °FFog.5 mph94%30.18 "Hg2 mi
12:50 AM50 °FFog.3 mph94%30.18 "Hg2 mi
12:20 AM50 °FFog.6 mph94%30.21 "Hg2 mi
11:48 PM
Oct 23
48 °FFog.3 mph100%30.21 "Hg2 mi
11:20 PM48 °FFog.3 mph100%30.21 "Hg2 mi
10:45 PM48 °FPassing clouds.3 mph94%30.21 "Hg4 mi
10:20 PM48 °FPassing clouds.3 mph94%30.21 "Hg4 mi
9:20 PM50 °FPassing clouds.5 mph94%30.18 "Hg5 mi
Weather by CustomWeather, © 2014

See weather overviewHow to use our weather pages